Weather in Venev

Russia / Tula Oblast     54°21′01″N   38°15′55″E
temp.,
°C
wind,
m/s
gust,
m/s
humid.,
%
clouds,
%
prec.,
mm/h
press.,
hPa
HPBL,
m
24 july, sat
sat2400:00+15nw377098 0.0 1010167
03:00+15nw247199 0.0 1011101
06:00+14nw2573100 0.0 1012155
09:00+16nnw3561100 0.0 1013339
12:00+18nnw4453100 0.0 1014962
15:00+20nw344646 0.0 10141697
18:00+20nw3444100 0.0 10151059
21:00+16n2354100 0.0 101754
25 july, sun
sun2500:00+12ne117218 0.0 101911
03:00+12e117254 0.0 102012
06:00+14ne116695 0.0 102139
09:00+19ne115010 0.0 1021514
12:00+22wnw133696 0.0 10222502
15:00+21nw2242100 0.0 10221437
18:00+20wnw124867 0.0 1022201
21:00+16sse005288 0.0 102311
26 july, mon
mon2600:00+14sw115715 0.0 102411
03:00+16ssw225299 0.0 102528
06:00+17ssw3352100 0.0 102566
09:00+20wsw234930 0.0 1025325
12:00+24w233558 0.0 10252498
15:00+24n123780 0.0 10241864
18:00+25wsw123883 0.0 10231802
21:00+20wnw224559 0.0 102418
27 july, tue
tue2700:00+17nw225478 0.0 102426
03:00+16w225911 0.0 102416
06:00+16wnw22655 0.0 102542
09:00+23wnw23485 0.0 1024464
12:00+25nw333877 0.0 10241661
15:00+27nw233348 0.0 10222506
18:00+26w33418 0.0 1022919
21:00+19wnw11617 0.0 102211
28 july, wed
wed2800:00+18w22595 0.0 102211
03:00+16sw22625 0.0 102111
06:00+17sw22655 0.0 102123
09:00+24ssw334523 0.0 1019463
12:00+28sw45325 0.0 10182304
15:00+29sw6730100 0.0 10162456
18:00+27sw4739100 0.0 1015713
21:00+22s464896 0.0 101378